• In Hungary
  • List of Countries
  • For 7 days
  • Water Temperature
  • Satellite Maps
  • Weather Map
  • News
  • Weather Widgets
  • user-avatar
    Login

    Hourly Weather Bismarck

    Today, 20 September, Thursday

    Time Temperature Precipitation Wind Pressure Humidity
    00:00 +11°C° 0 mm 4 mps 719 mmHg 63%
    01:00 +10°C° 0 mm 5 mps 718 mmHg 62%
    02:00 +10°C° 0 mm 5 mps 718 mmHg 61%
    03:00 +9°C° 0.3 mm 5 mps 717 mmHg 64%
    04:00 +9°C° 0.3 mm 5 mps 717 mmHg 67%
    05:00 +8°C° 0.3 mm 5 mps 716 mmHg 70%
    06:00 +8°C° 3.6 mm 5 mps 716 mmHg 76%
    07:00 +7°C° 3.6 mm 5 mps 716 mmHg 82%
    08:00 +7°C° 3.6 mm 4 mps 715 mmHg 88%
    09:00 +7°C° 3.6 mm 5 mps 715 mmHg 89%
    10:00 +8°C° 3.6 mm 5 mps 715 mmHg 90%
    11:00 +8°C° 3.6 mm 6 mps 714 mmHg 90%
    12:00 +8°C° 0.7 mm 5 mps 714 mmHg 90%
    13:00 +8°C° 0.7 mm 5 mps 714 mmHg 90%
    14:00 +8°C° 0.7 mm 5 mps 713 mmHg 89%
    15:00 +8°C° 0.7 mm 5 mps 714 mmHg 89%
    16:00 +8°C° 0.7 mm 5 mps 714 mmHg 89%
    17:00 +7°C° 0.7 mm 6 mps 714 mmHg 89%
    18:00 +7°C° 0.6 mm 5 mps 714 mmHg 89%
    19:00 +7°C° 0.6 mm 5 mps 715 mmHg 89%
    20:00 +6°C° 0.6 mm 5 mps 715 mmHg 89%
    21:00 +6°C° 0.3 mm 5 mps 716 mmHg 88%
    22:00 +6°C° 0.3 mm 5 mps 717 mmHg 87%
    23:00 +6°C° 0.3 mm 5 mps 718 mmHg 87%

    Tomorrow, 21 September, Friday

    Time Temperature Precipitation Wind Pressure Humidity
    00:00 +5°C° 0.1 mm 4 mps 718 mmHg 87%
    01:00 +5°C° 0.1 mm 4 mps 719 mmHg 87%
    02:00 +5°C° 0.1 mm 3 mps 719 mmHg 87%
    03:00 +5°C° 0 mm 3 mps 720 mmHg 90%
    04:00 +4°C° 0 mm 3 mps 720 mmHg 92%
    05:00 +3°C° 0 mm 3 mps 721 mmHg 94%
    06:00 +5°C° 0 mm 3 mps 721 mmHg 88%
    07:00 +7°C° 0 mm 3 mps 722 mmHg 83%
    08:00 +8°C° 0 mm 3 mps 723 mmHg 77%
    09:00 +10°C° 0 mm 2 mps 723 mmHg 68%
    10:00 +13°C° 0 mm 2 mps 723 mmHg 60%
    11:00 +14°C° 0 mm 1 mps 723 mmHg 52%
    12:00 +15°C° 0 mm 2 mps 722 mmHg 48%
    13:00 +15°C° 0 mm 2 mps 722 mmHg 45%
    14:00 +16°C° 0 mm 3 mps 721 mmHg 42%
    15:00 +16°C° 0 mm 3 mps 721 mmHg 44%
    16:00 +14°C° 0 mm 3 mps 721 mmHg 47%
    17:00 +14°C° 0 mm 3 mps 720 mmHg 50%
    18:00 +13°C° 0 mm 3 mps 720 mmHg 52%
    19:00 +12°C° 0 mm 4 mps 720 mmHg 54%
    20:00 +11°C° 0 mm 4 mps 720 mmHg 56%
    21:00 +10°C° 0 mm 5 mps 719 mmHg 56%
    22:00 +10°C° 0 mm 5 mps 719 mmHg 55%
    23:00 +11°C° 0 mm 6 mps 719 mmHg 54%

    Day after tomorrow, 22 September, Saturday

    Time Temperature Precipitation Wind Pressure Humidity
    00:00 +10°C° 0 mm 5 mps 718 mmHg 57%
    01:00 +10°C° 0 mm 5 mps 718 mmHg 61%
    02:00 +11°C° 0 mm 4 mps 718 mmHg 64%
    03:00 +10°C° 0 mm 3 mps 718 mmHg 68%
    04:00 +10°C° 0 mm 2 mps 718 mmHg 72%
    05:00 +9°C° 0 mm 2 mps 718 mmHg 77%
    06:00 +10°C° 0 mm 2 mps 718 mmHg 73%
    07:00 +11°C° 0 mm 3 mps 719 mmHg 69%
    08:00 +13°C° 0 mm 4 mps 719 mmHg 66%
    09:00 +14°C° 0 mm 4 mps 720 mmHg 63%
    10:00 +15°C° 0 mm 5 mps 720 mmHg 59%
    11:00 +16°C° 0 mm 5 mps 720 mmHg 56%
    12:00 +16°C° 0 mm 5 mps 720 mmHg 55%
    13:00 +16°C° 0 mm 6 mps 720 mmHg 55%
    14:00 +17°C° 0 mm 6 mps 719 mmHg 54%
    15:00 +15°C° 0 mm 6 mps 719 mmHg 56%
    16:00 +14°C° 0 mm 6 mps 719 mmHg 58%
    17:00 +13°C° 0 mm 6 mps 719 mmHg 60%
    18:00 +11°C° 0 mm 6 mps 719 mmHg 61%
    19:00 +9°C° 0 mm 6 mps 720 mmHg 63%
    20:00 +8°C° 0 mm 6 mps 720 mmHg 64%
    21:00 +8°C° 0 mm 6 mps 719 mmHg 66%
    22:00 +7°C° 0 mm 6 mps 719 mmHg 68%
    23:00 +7°C° 0 mm 6 mps 719 mmHg 70%

    23 September, Sunday

    Time Temperature Precipitation Wind Pressure Humidity
    00:00 +5°C° 0 mm 6 mps 718 mmHg 73%
    01:00 +5°C° 0 mm 6 mps 718 mmHg 76%
    02:00 +6°C° 0 mm 5 mps 718 mmHg 79%
    03:00 +6°C° 0 mm 5 mps 717 mmHg 81%
    04:00 +7°C° 0 mm 5 mps 717 mmHg 84%
    05:00 +7°C° 0 mm 5 mps 716 mmHg 86%
    06:00 +8°C° 0 mm 5 mps 716 mmHg 86%
    07:00 +10°C° 0 mm 4 mps 716 mmHg 85%
    08:00 +11°C° 0 mm 3 mps 715 mmHg 84%
    09:00 +11°C° 0 mm 3 mps 715 mmHg 82%
    10:00 +12°C° 0 mm 3 mps 715 mmHg 80%
    11:00 +13°C° 0 mm 3 mps 714 mmHg 78%
    12:00 +13°C° 0 mm 3 mps 714 mmHg 78%
    13:00 +13°C° 0 mm 4 mps 713 mmHg 77%
    14:00 +13°C° 0 mm 4 mps 713 mmHg 77%
    15:00 +12°C° 0 mm 4 mps 713 mmHg 78%
    16:00 +12°C° 0 mm 3 mps 713 mmHg 79%
    17:00 +12°C° 0 mm 3 mps 713 mmHg 80%
    18:00 +11°C° 0 mm 3 mps 713 mmHg 83%
    19:00 +10°C° 0 mm 3 mps 714 mmHg 85%
    20:00 +10°C° 0 mm 3 mps 714 mmHg 87%
    21:00 +9°C° 0 mm 3 mps 713 mmHg 89%
    22:00 +9°C° 0 mm 3 mps 713 mmHg 90%
    23:00 +9°C° 0 mm 3 mps 713 mmHg 91%

    24 September, Monday

    Time Temperature Precipitation Wind Pressure Humidity
    00:00 +9°C° 0.1 mm 3 mps 713 mmHg 91%
    01:00 +9°C° 0.1 mm 3 mps 713 mmHg 91%
    02:00 +9°C° 0.1 mm 3 mps 713 mmHg 91%
    03:00 +9°C° 0 mm 3 mps 713 mmHg 92%
    04:00 +8°C° 0 mm 3 mps 713 mmHg 93%
    05:00 +8°C° 0 mm 3 mps 714 mmHg 94%
    06:00 +9°C° 0 mm 3 mps 714 mmHg 90%
    07:00 +10°C° 0 mm 3 mps 714 mmHg 86%
    08:00 +10°C° 0 mm 3 mps 714 mmHg 83%
    09:00 +12°C° 0 mm 3 mps 714 mmHg 75%
    10:00 +14°C° 0 mm 3 mps 714 mmHg 67%
    11:00 +17°C° 0 mm 3 mps 714 mmHg 59%
    12:00 +18°C° 0 mm 3 mps 714 mmHg 58%
    13:00 +18°C° 0 mm 4 mps 714 mmHg 56%
    14:00 +19°C° 0 mm 4 mps 713 mmHg 54%
    15:00 +18°C° 0 mm 4 mps 714 mmHg 56%
    16:00 +17°C° 0 mm 3 mps 714 mmHg 58%
    17:00 +16°C° 0 mm 3 mps 714 mmHg 59%
    18:00 +14°C° 0 mm 3 mps 714 mmHg 60%
    19:00 +14°C° 0 mm 2 mps 715 mmHg 61%
    20:00 +13°C° 0 mm 2 mps 715 mmHg 62%
    21:00 +12°C° 0 mm 2 mps 715 mmHg 63%
    22:00 +12°C° 0 mm 2 mps 715 mmHg 65%
    23:00 +10°C° 0 mm 2 mps 715 mmHg 67%

    25 September, Tuesday

    Time Temperature Precipitation Wind Pressure Humidity
    00:00 +10°C° 0.1 mm 3 mps 716 mmHg 69%
    01:00 +10°C° 0.1 mm 3 mps 716 mmHg 72%
    02:00 +10°C° 0.1 mm 3 mps 716 mmHg 74%
    03:00 +8°C° 0.1 mm 4 mps 717 mmHg 76%
    04:00 +8°C° 0.1 mm 4 mps 717 mmHg 77%
    05:00 +8°C° 0.1 mm 4 mps 717 mmHg 79%
    06:00 +9°C° 0.1 mm 5 mps 718 mmHg 76%
    07:00 +9°C° 0.1 mm 7 mps 718 mmHg 72%
    08:00 +10°C° 0.1 mm 8 mps 718 mmHg 69%
    09:00 +11°C° 0 mm 8 mps 718 mmHg 63%
    10:00 +12°C° 0 mm 8 mps 718 mmHg 58%
    11:00 +13°C° 0 mm 8 mps 719 mmHg 52%
    12:00 +14°C° 0.1 mm 7 mps 719 mmHg 49%
    13:00 +14°C° 0.1 mm 7 mps 719 mmHg 45%
    14:00 +15°C° 0.1 mm 7 mps 719 mmHg 42%
    15:00 +14°C° 0 mm 6 mps 719 mmHg 42%
    16:00 +13°C° 0 mm 5 mps 719 mmHg 43%
    17:00 +13°C° 0 mm 3 mps 719 mmHg 43%
    18:00 +12°C° 0 mm 3 mps 719 mmHg 46%
    19:00 +10°C° 0 mm 2 mps 719 mmHg 48%
    20:00 +9°C° 0 mm 2 mps 719 mmHg 51%
    21:00 +9°C° 0.1 mm 2 mps 719 mmHg 55%
    22:00 +9°C° 0.1 mm 3 mps 719 mmHg 59%
    23:00 +9°C° 0.1 mm 3 mps 719 mmHg 62%
    Show more